Wind_Speed
32 34 35 35 36 38 40 40 41 42 44 44 45 45 46 47 48 48 48 47 47 46 46 46 45 44 44 44 44 44 43 42 42 42 43 42 42 41 42 42 43 44 44
33 35 35 36 37 38 39 41 42 43 44 45 45 46 47 48 48 48 49 49 49 48 48 47 47 46 45 45 46 46 45 45 44 44 44 44 44 43 43 44 45 45 45
34 35 36 36 38 38 38 40 41 43 44 45 46 47 48 49 50 50 50 50 50 51 49 48 48 47 47 47 47 47 47 47 46 46 46 47 47 46 45 46 45 45 45
34 34 35 36 37 37 38 39 41 42 43 44 45 46 48 50 51 51 51 51 52 52 52 51 50 49 49 49 49 48 49 49 48 48 48 49 49 48 48 47 46 45 45
32 32 33 35 37 36 37 39 41 42 43 45 46 46 47 49 50 51 52 52 52 53 53 53 52 50 50 50 51 50 51 51 51 50 50 50 50 49 48 47 47 46 46
31 32 32 34 35 36 37 39 40 41 43 43 45 46 47 48 49 50 51 51 51 52 52 53 52 51 51 50 51 52 52 51 52 52 52 51 49 49 48 48 47 47 47
32 33 33 34 35 36 38 39 40 41 42 43 43 45 46 47 49 50 51 51 51 52 53 53 53 52 52 52 52 52 52 52 53 53 52 52 51 50 50 50 49 49 49
33 34 34 35 36 37 38 39 40 41 42 43 43 44 46 47 48 49 50 51 52 52 53 53 53 53 52 53 52 52 54 53 53 53 53 53 53 52 52 52 52 51 50
33 34 34 34 35 37 38 39 40 41 41 42 43 44 46 47 48 49 50 51 51 52 53 54 54 54 54 55 54 53 54 54 54 54 54 54 54 53 52 53 53 53 52
32 34 34 34 35 37 38 40 41 42 43 44 44 44 46 47 48 49 51 51 52 52 54 54 55 55 56 56 57 56 56 55 55 55 55 55 55 53 53 54 54 53 53
32 33 34 35 35 36 37 38 39 40 42 44 45 46 46 47 47 48 50 51 51 52 53 54 55 56 56 57 57 58 58 57 56 55 55 55 55 54 54 55 56 55 55
32 32 33 35 35 35 36 37 38 39 41 42 44 45 46 46 46 47 48 50 51 51 52 53 53 55 56 57 57 58 58 57 57 56 56 56 56 56 55 56 57 57 57
33 33 33 34 35 35 35 36 37 37 39 41 42 44 45 45 46 46 47 48 50 51 52 53 53 53 54 56 57 58 58 57 57 57 57 56 57 57 57 57 59 59 58
35 35 35 34 34 35 35 36 36 36 37 38 40 42 43 45 46 47 47 48 50 51 51 52 53 53 54 55 56 57 58 58 59 58 58 58 58 57 58 59 59 59 58
35 36 35 34 34 35 35 35 35 36 36 37 39 40 41 43 45 46 47 48 49 51 52 53 52 52 53 54 55 56 57 58 58 58 58 58 59 59 59 59 58 58 58
35 35 35 35 35 35 36 36 36 37 37 38 38 39 41 42 44 45 46 47 48 50 52 53 53 53 53 53 54 56 57 58 57 56 56 57 58 59 59 59 58 58 58
35 35 35 35 35 35 36 37 37 38 39 39 39 40 41 42 43 44 45 45 47 48 50 52 53 53 53 54 54 55 55 56 56 56 55 56 56 57 58 58 58 58 58
34 34 35 35 35 35 36 36 37 37 37 39 40 40 41 41 42 43 43 44 45 45 47 49 51 52 53 52 53 54 54 54 54 54 54 55 55 56 56 56 57 56 56
34 34 34 34 35 36 36 37 36 36 37 38 39 39 40 40 41 41 42 42 43 45 45 47 48 49 50 51 51 51 51 52 52 52 51 52 53 54 54 55 55 55 55
34 33 34 34 35 36 37 36 36 37 37 38 38 39 39 39 40 40 41 42 42 43 44 45 46 47 48 49 49 48 49 49 49 50 51 51 52 52 53 53 54 53 54
35 34 34 34 35 36 37 37 37 38 38 38 38 38 38 39 39 40 41 42 42 43 43 44 44 44 46 46 46 47 48 48 49 49 49 49 50 51 52 52 52 52 53
35 35 35 35 35 36 36 37 38 38 38 39 39 39 39 39 39 40 40 41 41 42 42 42 42 43 44 44 45 46 47 47 48 48 49 49 50 50 51 52 52 52 53
34 34 35 35 35 36 36 36 37 38 38 38 38 39 39 39 39 39 39 40 41 41 41 41 41 42 42 43 44 46 47 47 47 47 48 49 50 50 50 51 51 52 53
35 35 35 35 35 35 35 35 35 36 36 36 37 37 38 38 38 38 38 39 40 40 40 40 40 41 42 43 44 45 47 47 47 47 47 48 48 49 49 49 50 51 52
35 35 35 35 35 35 35 34 34 33 34 34 35 35 35 36 35 36 36 36 37 39 39 40 41 41 41 42 43 44 46 46 46 46 46 46 47 47 48 48 48 48 49
35 35 36 36 35 35 34 33 33 32 32 32 33 33 33 34 34 34 35 35 35 37 38 39 40 41 41 41 41 42 43 44 44 44 45 45 46 46 47 47 47 47 47
Wind_Direction
259 257 253 251 251 250 250 248 248 248 248 248 248 248 248 247 247 247 246 247 247 247 247 247 248 248 248 248 251 251 252 253 254 254 254 256 256 257 258 257 257 257 257
262 259 256 253 252 252 251 250 250 249 249 249 249 248 248 248 247 248 248 248 247 248 249 249 249 250 249 249 251 252 253 253 254 255 256 256 256 258 259 259 259 258 257
264 262 259 255 255 254 253 252 252 252 250 250 250 249 249 248 248 247 247 248 248 248 248 249 249 250 250 250 251 253 253 254 256 256 257 257 257 259 260 259 258 257 257
267 264 260 255 254 255 254 252 253 252 251 251 251 250 249 248 248 248 248 248 249 250 250 250 251 251 251 251 251 252 255 256 257 257 258 259 259 260 261 259 257 256 256
267 264 260 255 254 255 254 253 254 253 252 252 251 251 250 249 249 248 248 248 249 250 251 252 251 251 251 252 252 253 255 256 257 257 258 260 260 260 259 257 256 257 256
267 262 260 257 256 257 254 253 254 252 252 253 252 251 251 251 250 249 249 249 249 250 251 251 252 252 252 252 252 253 254 255 257 257 258 259 259 258 257 256 256 257 257
268 264 262 260 259 259 257 256 255 253 251 253 253 252 252 251 251 249 249 249 250 251 251 251 252 252 253 253 253 253 254 255 257 257 258 259 258 257 257 255 256 256 257
268 265 265 263 262 261 259 260 257 254 252 253 253 254 252 252 252 251 251 251 251 252 252 252 253 253 254 254 253 253 255 256 257 257 257 258 258 258 257 255 256 257 256
271 268 268 267 265 263 261 261 259 256 254 253 255 255 254 255 254 253 252 251 251 252 253 253 253 253 254 255 255 255 255 256 257 257 257 257 258 258 256 255 256 257 256
275 272 270 270 269 267 265 263 261 259 256 255 256 256 256 256 255 254 253 253 252 253 254 254 253 253 254 254 254 255 255 256 257 258 258 258 257 256 256 255 256 257 258
280 275 272 270 271 269 267 266 263 261 258 257 257 257 257 256 256 256 255 254 253 254 255 255 254 254 254 254 254 255 255 256 256 257 257 257 257 256 256 256 256 258 259
281 279 276 274 272 270 269 267 265 263 261 260 258 257 257 257 257 257 256 255 254 254 255 255 256 255 255 256 255 255 255 256 256 256 256 257 256 255 256 256 257 258 259
282 282 282 279 275 272 272 269 267 266 265 263 261 259 258 257 257 258 258 257 255 255 255 256 256 256 255 256 256 255 255 255 255 255 255 256 255 255 256 256 256 257 259
283 283 283 282 279 276 275 273 271 269 267 266 265 263 261 259 258 259 259 258 257 255 256 256 256 256 256 256 256 255 254 254 254 255 255 255 255 255 256 257 256 257 258
284 283 283 282 281 278 277 276 273 272 270 269 267 265 263 262 261 260 260 259 258 257 256 256 256 256 257 257 257 255 255 255 255 255 255 255 255 255 256 257 257 257 257
284 284 284 283 282 279 278 277 276 274 273 272 270 267 264 263 262 261 261 260 259 258 257 256 257 257 258 258 258 257 256 255 254 255 255 255 254 255 256 255 256 257 257
284 283 283 283 282 280 279 278 277 275 273 272 271 269 267 265 263 262 261 260 260 259 258 258 258 258 258 258 258 258 257 256 255 255 255 255 254 254 254 255 256 257 257
285 283 283 282 282 281 280 279 278 276 275 273 272 270 269 267 264 263 262 262 261 260 260 259 258 257 257 257 257 257 257 257 256 256 256 256 255 254 255 255 256 257 257
286 285 284 283 282 282 281 280 278 277 277 276 275 273 270 268 265 263 262 262 261 261 261 261 260 258 257 257 258 258 256 256 255 255 256 256 255 255 255 255 256 256 256
289 288 286 285 283 283 282 281 279 278 278 278 276 273 271 268 266 264 263 262 262 263 262 262 260 258 257 258 258 256 255 255 256 256 256 256 256 256 255 255 256 256 256
289 289 288 287 286 285 283 282 280 279 278 278 276 273 271 269 267 266 264 263 263 262 262 261 260 259 258 257 258 257 256 256 256 256 256 256 256 256 256 256 255 256 256
291 289 289 288 288 286 284 282 280 279 278 277 276 274 272 270 268 267 265 264 264 263 262 261 260 260 259 258 257 257 257 257 257 257 257 257 256 256 256 256 255 256 257
293 291 290 289 288 287 284 282 280 279 279 278 275 273 272 271 270 268 266 265 264 263 262 261 261 259 260 260 260 259 258 257 257 257 257 257 257 257 257 256 255 256 257
295 293 291 290 289 288 286 283 282 281 280 278 275 273 271 270 269 268 267 265 263 262 262 263 263 262 262 262 262 260 258 257 257 257 257 257 257 257 256 256 256 256 256
294 293 291 290 289 288 287 284 283 283 282 279 276 274 273 271 269 268 267 265 263 263 263 263 264 264 264 263 263 262 260 259 259 258 258 257 257 257 257 257 257 257 256
295 294 293 291 290 289 287 285 284 284 284 281 277 275 274 273 270 268 267 266 266 265 265 264 264 264 263 263 262 262 261 260 260 259 258 257 257 257 257 257 257 257 256
Height
5686 5686 5687 5688 5690 5692 5694 5696 5698 5700 5703 5705 5707 5710 5712 5715 5718 5721 5723 5726 5728 5731 5734 5737 5739 5742 5744 5746 5748 5750 5752 5754 5756 5757 5759 5760 5761 5762 5763 5764 5765 5766 5767
5677 5677 5678 5679 5680 5681 5683 5685 5688 5690 5692 5694 5696 5699 5701 5703 5706 5709 5711 5714 5717 5720 5723 5726 5728 5731 5733 5735 5738 5740 5742 5744 5745 5747 5748 5750 5752 5752 5753 5753 5754 5755 5755
5668 5668 5669 5670 5670 5672 5673 5675 5676 5678 5680 5682 5684 5686 5689 5691 5694 5697 5699 5702 5705 5708 5711 5714 5716 5719 5722 5724 5727 5729 5731 5733 5734 5736 5738 5739 5740 5742 5743 5743 5743 5744 5744
5658 5659 5659 5660 5661 5662 5663 5665 5665 5667 5669 5671 5673 5674 5677 5679 5682 5684 5687 5690 5693 5695 5698 5701 5704 5707 5710 5713 5715 5717 5719 5721 5723 5724 5726 5727 5729 5730 5731 5732 5733 5734 5735
5649 5649 5650 5650 5651 5652 5653 5654 5655 5656 5658 5660 5661 5663 5665 5667 5669 5672 5675 5678 5680 5683 5686 5689 5691 5694 5697 5700 5703 5705 5707 5709 5711 5712 5714 5714 5716 5717 5718 5721 5722 5723 5724
5640 5640 5640 5641 5641 5642 5642 5644 5644 5645 5647 5648 5650 5651 5653 5654 5657 5659 5662 5665 5668 5670 5673 5676 5678 5681 5684 5687 5690 5692 5694 5696 5698 5700 5701 5702 5704 5705 5706 5708 5710 5712 5713
5632 5631 5631 5631 5631 5632 5632 5633 5634 5634 5636 5637 5638 5639 5641 5642 5644 5647 5650 5652 5655 5657 5660 5663 5666 5668 5671 5674 5676 5678 5680 5683 5684 5686 5688 5689 5691 5692 5694 5696 5698 5699 5701
5623 5622 5622 5622 5622 5622 5622 5622 5623 5623 5624 5626 5627 5628 5629 5630 5632 5635 5637 5640 5642 5645 5647 5650 5652 5655 5657 5660 5662 5664 5667 5669 5671 5672 5674 5676 5678 5679 5681 5683 5685 5687 5689
5615 5613 5613 5612 5611 5611 5611 5611 5611 5612 5613 5614 5615 5616 5617 5618 5620 5622 5624 5627 5629 5632 5634 5636 5639 5641 5643 5645 5648 5650 5652 5654 5656 5658 5660 5662 5664 5666 5668 5670 5671 5674 5676
5606 5604 5603 5601 5601 5600 5600 5600 5600 5601 5602 5602 5603 5604 5605 5606 5607 5609 5611 5614 5616 5618 5620 5622 5625 5627 5629 5631 5633 5636 5638 5640 5642 5644 5646 5648 5650 5652 5654 5656 5658 5660 5662
5596 5594 5593 5591 5590 5589 5589 5588 5588 5588 5589 5590 5591 5592 5592 5593 5595 5596 5598 5600 5602 5604 5606 5608 5610 5612 5614 5616 5618 5621 5623 5625 5627 5629 5631 5633 5635 5637 5640 5641 5643 5645 5647
5586 5584 5583 5581 5580 5579 5578 5577 5577 5577 5577 5577 5578 5578 5579 5580 5582 5583 5584 5586 5588 5590 5592 5594 5596 5597 5599 5601 5603 5605 5607 5610 5612 5614 5617 5619 5620 5623 5625 5627 5629 5631 5633
5577 5575 5573 5571 5570 5568 5567 5566 5566 5565 5565 5565 5565 5565 5566 5567 5568 5569 5571 5572 5574 5576 5578 5580 5581 5583 5584 5586 5588 5590 5592 5594 5597 5599 5601 5604 5606 5608 5610 5612 5614 5616 5618
5568 5565 5563 5561 5560 5558 5557 5556 5555 5554 5554 5553 5553 5553 5553 5554 5555 5556 5557 5558 5560 5562 5564 5565 5567 5568 5570 5571 5572 5574 5576 5578 5581 5583 5585 5588 5590 5592 5594 5597 5599 5601 5603
5557 5555 5553 5551 5549 5548 5547 5545 5544 5543 5542 5541 5541 5541 5541 5541 5541 5542 5543 5544 5546 5547 5549 5550 5552 5553 5555 5556 5557 5559 5560 5562 5565 5567 5569 5572 5574 5576 5578 5581 5583 5586 5588
5548 5545 5543 5541 5539 5538 5536 5535 5534 5532 5531 5530 5529 5528 5528 5528 5528 5528 5529 5530 5531 5532 5534 5535 5537 5538 5540 5541 5542 5543 5545 5547 5549 5551 5553 5556 5558 5560 5562 5565 5568 5570 5572
5538 5535 5533 5531 5529 5527 5526 5524 5523 5521 5520 5518 5517 5516 5515 5515 5515 5515 5515 5516 5517 5518 5519 5521 5522 5524 5525 5526 5527 5528 5529 5531 5534 5536 5538 5540 5542 5544 5546 5549 5551 5554 5556
5528 5526 5523 5521 5519 5516 5515 5513 5511 5509 5508 5506 5505 5504 5503 5502 5502 5501 5502 5502 5504 5505 5505 5506 5507 5508 5509 5510 5511 5512 5514 5516 5518 5520 5523 5524 5526 5528 5530 5533 5536 5538 5541
5518 5516 5513 5510 5508 5506 5504 5502 5500 5498 5496 5495 5493 5491 5490 5489 5489 5489 5489 5490 5490 5491 5492 5492 5493 5494 5495 5496 5497 5497 5499 5502 5504 5506 5507 5509 5512 5514 5515 5518 5521 5524 5525
5508 5505 5503 5500 5497 5495 5492 5490 5489 5487 5485 5483 5481 5480 5478 5478 5477 5477 5477 5477 5478 5478 5479 5479 5479 5480 5481 5482 5482 5483 5486 5488 5490 5492 5494 5495 5497 5499 5500 5503 5506 5508 5510
5498 5495 5492 5490 5487 5484 5481 5479 5477 5475 5474 5472 5470 5468 5467 5466 5466 5465 5465 5465 5465 5466 5466 5466 5466 5466 5467 5468 5469 5470 5472 5474 5476 5478 5479 5481 5483 5484 5485 5488 5491 5493 5495
5488 5485 5482 5479 5476 5473 5471 5468 5466 5464 5462 5460 5458 5457 5456 5455 5454 5454 5453 5453 5453 5453 5453 5453 5454 5454 5454 5455 5456 5457 5458 5459 5461 5464 5465 5467 5468 5469 5471 5472 5475 5477 5479
5477 5474 5471 5468 5465 5462 5459 5457 5455 5452 5450 5448 5446 5445 5444 5443 5442 5442 5441 5441 5440 5441 5441 5441 5441 5441 5442 5442 5443 5444 5444 5445 5447 5449 5450 5452 5453 5454 5456 5458 5460 5461 5463
5466 5463 5460 5457 5454 5451 5448 5445 5443 5441 5439 5437 5435 5433 5432 5431 5430 5429 5428 5428 5428 5428 5428 5428 5429 5429 5429 5429 5429 5430 5431 5432 5433 5435 5436 5437 5438 5440 5442 5443 5444 5446 5448
5456 5452 5449 5446 5443 5440 5437 5434 5432 5430 5427 5425 5423 5422 5420 5419 5418 5417 5416 5416 5416 5415 5416 5416 5416 5416 5416 5416 5417 5417 5418 5419 5420 5421 5422 5423 5425 5426 5428 5429 5430 5432 5434
5445 5442 5438 5435 5432 5429 5426 5423 5421 5419 5416 5414 5412 5411 5409 5408 5407 5406 5405 5404 5404 5403 5403 5403 5403 5403 5403 5403 5404 5404 5404 5405 5406 5407 5408 5410 5411 5412 5414 5416 5417 5419 5420